Language selection

Weather shortcuts

Dixon Entrance East: Past 24 Hour Conditions

 

Prince Rupert Airport

08:00 PM PDT 12 June 2024
Disclaimer

This table is a summary of hourly weather conditions for the past 24 hours.
Please note that these observations might not always be representative of weather conditions over their associated marine area.

Date / Time
(PDT)
Wind(knots) Conditions Visibility(km) Pressure(kPa) Air tempC) Relative humidity(%) Dew pointC)
12 June 2024
20:00 NNW 4 Mainly Sunny 16 102.4 11 77 7
19:00 NW 6 Sunny 16 102.5 11 71 6
18:00 NW 5 Sunny 16 102.5 13 65 6
17:00 W 6 Sunny 16 102.5 13 65 6
16:00 WNW 5 Sunny 16 102.5 13 65 6
15:00 WSW 7 Sunny 16 102.5 13 61 5
14:00 WSW 5 Sunny 16 102.5 13 57 5
13:00 WSW 5 Sunny 16 102.5 12 58 4
12:00 S 4 Sunny 16 102.5 12 64 5
11:00 SSW 5 Sunny 16 102.5 11 67 5
10:00 SSE 5 Sunny 16 102.4 11 70 6
9:00 SSE 4 Mostly Cloudy 16 102.4 10 76 6
8:00 S 2 Mostly Cloudy 16 102.4 9 81 6
7:00 S 3 Mostly Cloudy 16 102.3 9 81 6
6:00 SW 5 Cloudy 16 102.3 9 80 5
5:00 W 7 Cloudy 16 102.2 9 77 5
4:00 W 8 Cloudy 16 102.1 9 81 6
3:00 W 8 Cloudy 16 102.1 9 83 6
2:00 W 10 gusts 16 Cloudy 16 102.0 9 84 7
1:00 W 12 gusts 20 Cloudy 16 102.0 9 86 7
0:00 W 10 gusts 18 Light Rain 16 101.9 9 90 8
11 June 2024
23:00 WSW 6 gusts 15 Light Rain 16 101.8 9 93 8
22:00 W 9 Light Rain 16 101.7 9 90 8
21:00 W 5 Light Rain 10 101.6 9 93 8
20:00 W 10 gusts 18 Light Rain 8 101.4 9 94 8

Zoom-in to make a selection

Map of Pacific - North Coast marine weather areas Middle Nomad - 46004 South Nomad - 46036 Dixon Entrance Central - 46145 South Moresby - 46147 Nanakwa Shoal - 46181 North Hecate Strait - 46183 North Nomad - 46184 South Hecate Strait - 46185 West Sea Otter - 46204 West Dixon Entrance - 46205 East Dellwood - 46207 West Moresby - 46208 Sartine Island Cape St.James Kindakun Rocks Langara Island Masset Municipal Airport Rose Spit Sandspit Airport Bella Bella Airport Bella Coola Airport Bonilla Island Cathedral Point Cumshewa Island Grey Islet Holland Rock Lucy Islands Lightstation Prince Rupert Airport
Legend:
buoy Buoy
land station Land Station

Pacific - North Coast Area

Another Region

Features

New Predicting and Alerting Coastal Flooding Program

Find out about coastal flooding coverage, forecasts and warnings in your region

Date modified: